When you browse on this site, cookies collect data to enhance your experience and personalize the content and advertising you see.
Visit our Privacy Policy to learn more. By continuing to use the site, you agree to this use of cookies and data.
  • In Romania
  • List of Countries
  • For 7 days
  • Water Temperature
  • Satellite Maps
  • Weather Map
  • Weather Widgets
  • user-avatar
    Login

    Hourly Weather Asciano

    Today, 18 February, Monday

    Time Temperature Precipitation Wind Pressure Humidity
    00:00 +6°C° 0 mm 0 mps 748 mmHg 87%
    01:00 +5°C° 0 mm 0 mps 748 mmHg 88%
    02:00 +5°C° 0 mm 0 mps 748 mmHg 88%
    03:00 +5°C° 0 mm 0 mps 748 mmHg 89%
    04:00 +5°C° 0 mm 0 mps 748 mmHg 89%
    05:00 +4°C° 0 mm 0 mps 748 mmHg 89%
    06:00 +4°C° 0 mm 0 mps 748 mmHg 89%
    07:00 +4°C° 0 mm 0 mps 748 mmHg 89%
    08:00 +6°C° 0 mm 0 mps 748 mmHg 83%
    09:00 +8°C° 0 mm 0 mps 748 mmHg 76%
    10:00 +10°C° 0 mm 0 mps 748 mmHg 69%
    11:00 +11°C° 0 mm 0 mps 748 mmHg 63%
    12:00 +14°C° 0 mm 1 mps 748 mmHg 57%
    13:00 +15°C° 0 mm 1 mps 748 mmHg 52%
    14:00 +15°C° 0 mm 1 mps 748 mmHg 53%
    15:00 +15°C° 0 mm 1 mps 747 mmHg 53%
    16:00 +15°C° 0 mm 1 mps 747 mmHg 54%
    17:00 +13°C° 0 mm 1 mps 747 mmHg 63%
    18:00 +11°C° 0 mm 1 mps 747 mmHg 73%
    19:00 +9°C° 0 mm 1 mps 746 mmHg 82%
    20:00 +8°C° 0 mm 1 mps 746 mmHg 85%
    21:00 +8°C° 0 mm 1 mps 746 mmHg 87%
    22:00 +6°C° 0 mm 0 mps 746 mmHg 90%
    23:00 +6°C° 0 mm 0 mps 746 mmHg 90%

    Tomorrow, 19 February, Tuesday

    Time Temperature Precipitation Wind Pressure Humidity
    00:00 +5°C° 0 mm 0 mps 746 mmHg 90%
    01:00 +5°C° 0 mm 0 mps 746 mmHg 91%
    02:00 +5°C° 0 mm 0 mps 746 mmHg 91%
    03:00 +4°C° 0 mm 0 mps 746 mmHg 90%
    04:00 +4°C° 0 mm 0 mps 746 mmHg 90%
    05:00 +4°C° 0 mm 0 mps 746 mmHg 90%
    06:00 +4°C° 0 mm 0 mps 746 mmHg 90%
    07:00 +5°C° 0 mm 1 mps 746 mmHg 90%
    08:00 +6°C° 0 mm 1 mps 746 mmHg 83%
    09:00 +8°C° 0 mm 1 mps 746 mmHg 77%
    10:00 +10°C° 0 mm 1 mps 746 mmHg 70%
    11:00 +11°C° 0 mm 1 mps 746 mmHg 66%
    12:00 +13°C° 0 mm 1 mps 746 mmHg 61%
    13:00 +14°C° 0 mm 2 mps 746 mmHg 56%
    14:00 +14°C° 0 mm 2 mps 746 mmHg 58%
    15:00 +14°C° 0 mm 2 mps 746 mmHg 59%
    16:00 +14°C° 0 mm 2 mps 746 mmHg 60%
    17:00 +12°C° 0 mm 1 mps 746 mmHg 69%
    18:00 +10°C° 0 mm 1 mps 746 mmHg 77%
    19:00 +8°C° 0 mm 1 mps 746 mmHg 85%
    20:00 +8°C° 0 mm 1 mps 746 mmHg 87%
    21:00 +7°C° 0 mm 1 mps 746 mmHg 89%
    22:00 +6°C° 0 mm 0 mps 746 mmHg 91%
    23:00 +5°C° 0 mm 0 mps 746 mmHg 91%

    Day after tomorrow, 20 February, Wednesday

    Time Temperature Precipitation Wind Pressure Humidity
    00:00 +5°C° 0 mm 0 mps 746 mmHg 91%
    01:00 +5°C° 0 mm 0 mps 746 mmHg 91%
    02:00 +5°C° 0 mm 0 mps 746 mmHg 91%
    03:00 +4°C° 0 mm 0 mps 746 mmHg 91%
    04:00 +4°C° 0 mm 0 mps 746 mmHg 91%
    05:00 +4°C° 0 mm 0 mps 746 mmHg 91%
    06:00 +4°C° 0 mm 0 mps 746 mmHg 92%
    07:00 +4°C° 0 mm 0 mps 746 mmHg 92%
    08:00 +6°C° 0 mm 0 mps 747 mmHg 85%
    09:00 +8°C° 0 mm 0 mps 748 mmHg 79%
    10:00 +10°C° 0 mm 0 mps 748 mmHg 73%
    11:00 +11°C° 0 mm 0 mps 748 mmHg 68%
    12:00 +13°C° 0 mm 1 mps 748 mmHg 62%
    13:00 +14°C° 0 mm 1 mps 748 mmHg 57%
    14:00 +14°C° 0 mm 1 mps 748 mmHg 59%
    15:00 +14°C° 0 mm 1 mps 748 mmHg 60%
    16:00 +14°C° 0 mm 2 mps 748 mmHg 61%
    17:00 +12°C° 0 mm 1 mps 748 mmHg 69%
    18:00 +10°C° 0 mm 1 mps 748 mmHg 77%
    19:00 +9°C° 0 mm 1 mps 748 mmHg 86%
    20:00 +8°C° 0 mm 1 mps 748 mmHg 87%
    21:00 +8°C° 0 mm 1 mps 748 mmHg 89%
    22:00 +6°C° 0 mm 0 mps 749 mmHg 90%
    23:00 +6°C° 0 mm 0 mps 749 mmHg 91%

    21 February, Thursday

    Time Temperature Precipitation Wind Pressure Humidity
    00:00 +6°C° 0 mm 0 mps 749 mmHg 91%
    01:00 +5°C° 0 mm 0 mps 749 mmHg 91%
    02:00 +5°C° 0 mm 0 mps 749 mmHg 91%
    03:00 +5°C° 0 mm 0 mps 749 mmHg 91%
    04:00 +5°C° 0 mm 0 mps 749 mmHg 91%
    05:00 +4°C° 0 mm 0 mps 749 mmHg 91%
    06:00 +4°C° 0 mm 0 mps 749 mmHg 91%
    07:00 +4°C° 0 mm 0 mps 750 mmHg 90%
    08:00 +6°C° 0 mm 0 mps 750 mmHg 83%
    09:00 +8°C° 0 mm 0 mps 750 mmHg 76%
    10:00 +10°C° 0 mm 0 mps 751 mmHg 69%
    11:00 +13°C° 0 mm 1 mps 751 mmHg 63%
    12:00 +14°C° 0 mm 1 mps 751 mmHg 57%
    13:00 +15°C° 0 mm 1 mps 751 mmHg 51%
    14:00 +15°C° 0 mm 1 mps 751 mmHg 52%
    15:00 +15°C° 0 mm 1 mps 751 mmHg 52%
    16:00 +15°C° 0 mm 2 mps 751 mmHg 53%
    17:00 +13°C° 0 mm 1 mps 750 mmHg 63%
    18:00 +11°C° 0 mm 1 mps 750 mmHg 73%
    19:00 +9°C° 0 mm 1 mps 750 mmHg 82%
    20:00 +9°C° 0 mm 1 mps 751 mmHg 85%
    21:00 +8°C° 0 mm 1 mps 751 mmHg 88%
    22:00 +8°C° 0 mm 1 mps 751 mmHg 91%
    23:00 +7°C° 0 mm 1 mps 751 mmHg 91%

    22 February, Friday

    Time Temperature Precipitation Wind Pressure Humidity
    00:00 +7°C° 0 mm 1 mps 751 mmHg 92%
    01:00 +7°C° 0 mm 1 mps 751 mmHg 92%
    02:00 +7°C° 0 mm 1 mps 751 mmHg 92%
    03:00 +6°C° 0 mm 1 mps 751 mmHg 92%
    04:00 +6°C° 0 mm 1 mps 750 mmHg 92%
    05:00 +6°C° 0 mm 1 mps 750 mmHg 92%
    06:00 +6°C° 0 mm 1 mps 750 mmHg 92%
    07:00 +6°C° 0 mm 1 mps 750 mmHg 92%
    08:00 +8°C° 0 mm 1 mps 751 mmHg 85%
    09:00 +10°C° 0 mm 1 mps 751 mmHg 77%
    10:00 +12°C° 0 mm 1 mps 751 mmHg 70%
    11:00 +13°C° 0 mm 1 mps 751 mmHg 62%
    12:00 +15°C° 0 mm 2 mps 751 mmHg 55%
    13:00 +17°C° 0 mm 2 mps 751 mmHg 47%
    14:00 +17°C° 0 mm 2 mps 751 mmHg 47%
    15:00 +17°C° 0 mm 2 mps 751 mmHg 47%
    16:00 +18°C° 0 mm 2 mps 751 mmHg 47%
    17:00 +16°C° 0 mm 2 mps 751 mmHg 54%
    18:00 +14°C° 0 mm 2 mps 751 mmHg 60%
    19:00 +10°C° 0 mm 2 mps 751 mmHg 66%
    20:00 +10°C° 0 mm 2 mps 752 mmHg 66%
    21:00 +9°C° 0 mm 2 mps 752 mmHg 66%
    22:00 +9°C° 0 mm 2 mps 753 mmHg 66%
    23:00 +9°C° 0 mm 2 mps 753 mmHg 67%

    23 February, Saturday

    Time Temperature Precipitation Wind Pressure Humidity
    00:00 +8°C° 0 mm 2 mps 753 mmHg 67%
    01:00 +8°C° 0 mm 3 mps 754 mmHg 68%
    02:00 +8°C° 0 mm 3 mps 754 mmHg 71%
    03:00 +7°C° 0 mm 3 mps 754 mmHg 75%
    04:00 +7°C° 0 mm 3 mps 754 mmHg 79%
    05:00 +5°C° 0 mm 3 mps 754 mmHg 78%
    06:00 +5°C° 0 mm 3 mps 754 mmHg 78%
    07:00 +4°C° 0 mm 3 mps 754 mmHg 77%
    08:00 +7°C° 0 mm 3 mps 755 mmHg 70%
    09:00 +7°C° 0 mm 4 mps 755 mmHg 64%
    10:00 +10°C° 0 mm 4 mps 755 mmHg 57%
    11:00 +10°C° 0 mm 5 mps 755 mmHg 54%
    12:00 +12°C° 0 mm 5 mps 755 mmHg 51%
    13:00 +13°C° 0 mm 5 mps 756 mmHg 48%
    14:00 +13°C° 0 mm 5 mps 755 mmHg 47%
    15:00 +13°C° 0 mm 4 mps 755 mmHg 47%
    16:00 +13°C° 0 mm 4 mps 754 mmHg 46%
    17:00 +11°C° 0 mm 3 mps 754 mmHg 50%
    18:00 +9°C° 0 mm 3 mps 754 mmHg 53%
    19:00 +7°C° 0 mm 2 mps 754 mmHg 57%
    20:00 +6°C° 0 mm 2 mps 754 mmHg 57%
    21:00 +7°C° 0 mm 1 mps 754 mmHg 58%
    22:00 +6°C° 0 mm 1 mps 754 mmHg 58%
    23:00 +6°C° 0 mm 1 mps 754 mmHg 57%
    Show more